EA4TN Weather Reports


time (UTC)temp
C
wind
direction
speed
KPH
gust
KPH
rain 1hr
cm
rain 24hr
cm
rain mn
cm
humidity
%
barometer
mb
20260510044016 10 108 1.6 4.8 0.00 0.79 0.03 93 1012.2
20260510043016 9 256 0.0 3.2 0.00 0.79 0.03 93 1012.2
20260510042016 9 256 1.6 6.4 0.00 0.79 0.03 93 1012.4
20260510041017 9 108 0.0 3.2 0.00 0.79 0.03 93 1012.4
20260510040016 9 108 0.0 1.6 0.00 0.79 0.03 93 1012.4
20260510035036 10 108 0.0 3.2 0.00 0.79 0.03 93 1012.4
20260510034056 10 0.0 1.6 0.00 0.79 0.03 93 1012.3
20260510033016 10 118 3.2 6.4 0.00 0.79 0.03 93 1012.4
20260510032016 10 249 1.6 4.8 0.00 0.79 0.03 94 1012.7
20260510031016 10 237 3.2 4.8 0.00 0.79 0.03 94 1012.8
20260510030036 10 242 1.6 4.8 0.00 0.79 0.03 94 1012.9
20260510025016 10 223 1.6 4.8 0.00 0.79 0.03 94 1012.8
20260510024016 10 251 1.6 3.2 0.00 0.79 0.03 94 1012.8
20260510023036 10 235 3.2 6.4 0.00 0.79 0.03 94 1012.8
20260510022016 10 233 3.2 8.0 0.00 0.79 0.03 94 1012.5
20260510021036 10 241 3.2 6.4 0.00 0.79 0.03 93 1012.4
20260510020016 10 252 1.6 6.4 0.00 0.79 0.03 93 1012.4
20260510015016 10 241 1.6 4.8 0.00 0.79 0.03 93 1012.3
20260510014017 10 250 1.6 4.8 0.00 0.79 0.03 93 1012.4
20260510013016 10 236 1.6 4.8 0.00 0.79 0.03 93 1012.3
20260510012016 10 232 1.6 4.8 0.00 0.79 0.03 93 1012.5
20260510011016 10 264 3.2 4.8 0.03 0.79 0.03 92 1012.6
20260510010016 10 244 1.6 4.8 0.03 0.79 0.03 92 1012.6
20260510005036 10 238 1.6 8.0 0.03 0.79 0.03 93 1012.9
20260510004016 10 242 3.2 8.0 0.03 0.79 0.03 92 1013.0
20260510003016 10 238 1.6 8.0 0.05 0.79 0.03 92 1013.0
20260510002016 11 262 3.2 6.4 0.05 0.79 0.03 92 1013.3
20260510001016 11 233 3.2 6.4 0.05 0.76 0.00 92 1013.3
20260510000016 11 232 1.6 6.4 0.05 0.76 0.76 92 1013.1
20260509235016 11 258 1.6 8.0 0.05 0.76 0.76 91 1013.3
20260509234016 11 261 3.2 12.9 0.05 0.76 0.76 91 1013.2
20260509233036 11 262 4.8 12.9 0.03 0.74 0.74 91 1013.3
20260509232016 11 275 3.2 6.4 0.00 0.71 0.71 92 1013.3
20260509231036 11 247 3.2 8.0 0.00 0.71 0.71 92 1013.4
20260509230016 11 265 3.2 6.4 0.00 0.71 0.71 92 1013.4
20260509225056 11 97 3.2 4.8 0.00 0.71 0.71 92 1013.1
20260509224016 11 0.0 1.6 0.00 0.71 0.71 92 1012.9
20260509223036 11 0.0 4.8 0.00 0.71 0.71 92 1012.9
20260509222016 11 115 1.6 4.8 0.00 0.71 0.71 91 1012.8
20260509221016 11 247 1.6 4.8 0.05 0.71 0.71 91 1012.7
20260509220016 11 261 1.6 3.2 0.13 0.71 0.71 91 1012.7
20260509215016 11 270 1.6 4.8 0.13 0.71 0.71 91 1012.4
20260509214016 11 252 1.6 6.4 0.13 0.71 0.71 91 1012.2
20260509213016 11 281 4.8 17.7 0.13 0.71 0.71 90 1012.2
20260509212016 11 276 8.0 20.9 0.13 0.71 0.71 89 1012.3
20260509211016 11 277 9.7 25.7 0.05 0.66 0.66 86 1012.5
20260509210016 12 294 11.3 27.4 0.00 0.61 0.61 81 1012.3
20260509205036 13 267 14.5 25.7 0.00 0.61 0.61 76 1012.0
20260509204016 13 234 8.0 19.3 0.00 0.61 0.61 75 1011.1
20260509203036 13 240 9.7 24.1 0.00 0.61 0.61 75 1010.9
20260509202016 14 235 9.7 24.1 0.00 0.61 0.61 75 1010.6
20260509201016 14 243 9.7 22.5 0.00 0.61 0.61 75 1010.3
20260509200016 14 241 9.7 19.3 0.00 0.61 0.61 76 1010.1
20260509195016 14 228 9.7 20.9 0.00 0.61 0.61 76 1010.0
20260509194016 14 240 8.0 19.3 0.00 0.61 0.61 76 1009.8
20260509193036 15 251 6.4 16.1 0.00 0.61 0.61 76 1009.7
20260509192056 15 239 4.8 12.9 0.00 0.61 0.61 76 1009.6
20260509191016 15 235 4.8 11.3 0.00 0.61 0.61 76 1009.6
20260509190016 15 258 3.2 14.5 0.00 0.61 0.61 76 1009.6
20260509185016 16 260 4.8 11.3 0.00 0.61 0.61 76 1009.4
20260509184016 16 242 4.8 12.9 0.00 0.61 0.61 76 1009.4
20260509183016 16 245 4.8 9.7 0.00 0.61 0.61 77 1009.5
20260509182016 17 237 4.8 11.3 0.00 0.61 0.61 75 1009.6
20260509181016 17 247 1.6 6.4 0.00 0.61 0.61 77 1009.6
20260509180016 16 227 4.8 12.9 0.00 0.61 0.61 77 1009.5
20260509175016 16 243 4.8 12.9 0.00 0.61 0.61 77 1009.4
20260509174016 16 242 4.8 14.5 0.00 0.61 0.61 77 1009.4
20260509173016 16 247 4.8 12.9 0.00 0.61 0.61 79 1009.4
20260509172016 15 235 4.8 14.5 0.13 0.61 0.61 81 1009.3
20260509171016 15 244 4.8 12.9 0.15 0.61 0.61 83 1009.2
20260509170016 15 255 4.8 16.1 0.15 0.61 0.61 84 1009.2
20260509165016 14 243 4.8 19.3 0.15 0.61 0.61 86 1009.2
20260509164016 13 248 4.8 12.9 0.15 0.61 0.61 85 1009.4
20260509163016 14 256 4.8 35.4 0.15 0.61 0.61 81 1009.6
20260509162016 16 259 3.2 8.0 0.03 0.48 0.48 78 1009.7
20260509161116 17 271 3.2 6.4 0.00 0.46 0.46 73 1009.2
20260509160016 17 300 3.2 6.4 0.03 0.46 0.46 73 1009.0
20260509155016 17 281 1.6 4.8 0.05 0.46 0.46 73 1009.1
20260509154016 17 45 1.6 6.4 0.05 0.46 0.46 73 1009.1
20260509153156 16 288 1.6 4.8 0.05 0.46 0.46 75 1009.2
20260509152036 15 305 1.6 4.8 0.05 0.46 0.46 80 1009.3
20260509151036 15 295 1.6 6.4 0.05 0.46 0.46 81 1009.4
20260509150016 15 273 1.6 6.4 0.03 0.43 0.43 78 1009.7
20260509145016 16 261 1.6 6.4 0.00 0.43 0.43 76 1009.6
20260509144016 16 107 1.6 6.4 0.00 0.43 0.43 79 1009.8
20260509143016 15 55 3.2 9.7 0.00 0.43 0.43 80 1009.6
20260509142016 15 43 6.4 9.7 0.00 0.43 0.43 86 1009.4
20260509141016 14 53 4.8 9.7 0.00 0.43 0.43 91 1009.7
20260509140016 13 66 4.8 8.0 0.03 0.43 0.43 92 1009.8
20260509135016 13 72 4.8 9.7 0.08 0.43 0.43 92 1009.9
20260509134016 13 95 3.2 8.0 0.25 0.43 0.43 94 1009.9
20260509133016 12 73 1.6 4.8 0.30 0.43 0.43 93 1010.0
20260509132036 12 284 0.0 3.2 0.43 0.43 0.43 91 1010.0
20260509131016 12 284 3.2 6.4 0.43 0.43 0.43 91 1010.3
20260509130036 12 292 3.2 12.9 0.41 0.41 0.41 89 1010.5
20260509125016 12 270 4.8 14.5 0.33 0.33 0.33 86 1010.7
20260509124116 13 271 6.4 20.9 0.15 0.15 0.15 84 1010.4
20260509123016 15 341 8.0 16.1 0.13 0.13 0.13 80 1009.9
20260509122016 15 281 4.8 12.9 0.00 0.00 0.00 74 1009.9
20260509121016 16 285 4.8 11.3 0.00 0.20 0.00 73 1009.8
20260509120016 15 289 3.2 9.7 0.00 0.23 0.00 74 1009.8
20260509115016 15 304 6.4 16.1 0.00 0.23 0.00 75 1009.9
20260509114016 15 282 6.4 11.3 0.00 0.23 0.00 75 1010.0
20260509113036 15 286 6.4 12.9 0.00 0.23 0.00 73 1010.0
20260509112016 16 273 8.0 12.9 0.00 0.23 0.00 72 1010.1
20260509111056 16 261 6.4 12.9 0.00 0.23 0.00 69 1010.4
20260509110016 16 255 6.4 17.7 0.00 0.23 0.00 67 1010.3
20260509105037 16 267 6.4 11.3 0.00 0.23 0.00 68 1010.4
20260509104016 16 240 1.6 9.7 0.00 0.23 0.00 69 1010.4
20260509103036 16 249 4.8 11.3 0.00 0.25 0.00 69 1010.4
20260509102016 15 255 4.8 14.5 0.00 0.28 0.00 70 1010.3
20260509101036 15 240 6.4 16.1 0.00 0.28 0.00 70 1010.2
20260509100016 15 251 6.4 17.7 0.00 0.28 0.00 70 1010.1
20260509095017 15 235 8.0 14.5 0.00 0.28 0.00 70 1010.2
20260509094016 15 240 3.2 9.7 0.00 0.28 0.00 72 1010.3
20260509093016 15 244 6.4 16.1 0.00 0.28 0.00 75 1010.2
20260509092016 15 253 3.2 9.7 0.00 0.28 0.00 78 1010.3
20260509091016 14 254 3.2 8.0 0.00 0.28 0.00 80 1010.4
20260509090016 15 249 3.2 12.9 0.00 0.28 0.00 77 1010.5
20260509085036 15 231 3.2 14.5 0.00 0.28 0.00 74 1010.5
20260509084017 15 244 4.8 9.7 0.00 0.28 0.00 75 1010.6
20260509083016 15 266 3.2 11.3 0.00 0.28 0.00 75 1010.6
20260509082017 14 243 6.4 14.5 0.00 0.28 0.00 75 1010.5
20260509081016 14 114 3.2 11.3 0.00 0.28 0.00 76 1010.5
20260509080017 13 148 1.6 12.9 0.00 0.28 0.00 78 1010.4
20260509075017 13 106 1.6 12.9 0.00 0.28 0.00 78 1010.5
20260509074016 13 248 1.6 8.0 0.00 0.28 0.00 80 1010.7
20260509073016 13 257 1.6 3.2 0.00 0.28 0.00 80 1010.5
20260509072016 13 257 1.6 6.4 0.00 0.28 0.00 80 1010.5
20260509071017 13 228 0.0 6.4 0.00 0.28 0.00 80 1010.6
20260509070036 13 268 1.6 8.0 0.00 0.28 0.00 81 1010.7
20260509065017 13 267 4.8 9.7 0.00 0.28 0.00 81 1011.0
20260509064017 13 168 3.2 8.0 0.00 0.28 0.00 80 1010.5
20260509063036 13 244 4.8 16.1 0.00 0.28 0.00 80 1010.7
20260509062016 13 235 4.8 12.9 0.00 0.28 0.00 81 1010.7
20260509061017 13 263 4.8 11.3 0.00 0.28 0.00 81 1010.8
20260509060016 13 203 4.8 12.9 0.00 0.28 0.00 80 1010.5
20260509055016 13 120 4.8 14.5 0.00 0.28 0.00 81 1010.5
20260509054016 13 245 4.8 16.1 0.00 0.28 0.00 81 1010.6
20260509053017 12 241 4.8 12.9 0.00 0.28 0.00 81 1010.6
20260509052017 12 100 4.8 14.5 0.00 0.28 0.00 81 1010.4
20260509051016 13 125 9.7 19.3 0.00 0.28 0.00 81 1010.2
20260509050017 13 127 6.4 20.9 0.00 0.28 0.00 81 1010.1
20260509045036 13 125 8.0 19.3 0.00 0.28 0.00 81 1010.0